Time,TemperatureF,DewpointF,PressureIn,WindDirection,WindDirectionDegrees,WindSpeedMPH,WindSpeedGustMPH,Humidity,HourlyPrecipIn,Conditions,Clouds,dailyrainin,SoftwareType,DateUTC
2013-03-17 00:00:00,24.4,17.3,29.96,WNW,288,0.0,6.0,74,0.00,,,0.00,Wunderground v.1.15,2013-03-17 04:00:00,
2013-03-17 00:05:00,24.3,17.5,29.96,WNW,288,0.0,6.0,75,0.00,,,0.00,Wunderground v.1.15,2013-03-17 04:05:00,
2013-03-17 00:10:00,24.3,17.5,29.96,WNW,288,0.0,6.0,75,0.00,,,0.00,Wunderground v.1.15,2013-03-17 04:10:00,
2013-03-17 00:20:00,24.1,17.3,29.96,WNW,288,0.0,6.0,75,0.00,,,0.00,Wunderground v.1.15,2013-03-17 04:20:00,
2013-03-17 00:25:00,24.0,17.5,29.96,WNW,288,0.0,6.0,76,0.00,,,0.00,Wunderground v.1.15,2013-03-17 04:25:00,
2013-03-17 00:30:00,23.9,17.4,29.97,WNW,288,0.0,6.0,76,0.00,,,0.00,Wunderground v.1.15,2013-03-17 04:30:00,
2013-03-17 00:35:00,23.9,17.4,29.97,WNW,288,0.0,6.0,76,0.00,,,0.00,Wunderground v.1.15,2013-03-17 04:35:00,
2013-03-17 00:40:00,23.8,17.3,29.97,WNW,288,1.0,6.0,76,0.00,,,0.00,Wunderground v.1.15,2013-03-17 04:40:00,
2013-03-17 00:45:00,23.6,17.1,29.97,WNW,295,1.0,6.0,76,0.00,,,0.00,Wunderground v.1.15,2013-03-17 04:45:00,
2013-03-17 00:50:00,23.5,17.0,29.96,WNW,298,1.0,6.0,76,0.00,,,0.00,Wunderground v.1.15,2013-03-17 04:50:00,
2013-03-17 01:00:00,23.5,17.0,29.96,WNW,294,1.0,6.0,76,0.00,,,0.00,Wunderground v.1.15,2013-03-17 05:00:00,
2013-03-17 01:05:00,23.4,16.9,29.96,WNW,294,1.0,6.0,76,0.00,,,0.00,Wunderground v.1.15,2013-03-17 05:05:00,
2013-03-17 01:10:00,23.3,16.9,29.96,WNW,295,1.0,6.0,76,0.00,,,0.00,Wunderground v.1.15,2013-03-17 05:10:00,
2013-03-17 01:15:00,23.2,16.8,29.96,WNW,290,1.0,6.0,76,0.00,,,0.00,Wunderground v.1.15,2013-03-17 05:15:00,
2013-03-17 01:20:00,23.2,16.8,29.97,WNW,290,1.0,1.0,76,0.00,,,0.00,Wunderground v.1.15,2013-03-17 05:20:00,
2013-03-17 01:25:00,23.1,16.7,29.97,WNW,290,0.0,6.0,76,0.00,,,0.00,Wunderground v.1.15,2013-03-17 05:25:00,
2013-03-17 01:30:00,23.0,16.6,29.97,WNW,290,0.0,6.0,76,0.00,,,0.00,Wunderground v.1.15,2013-03-17 05:30:00,
2013-03-17 01:40:00,22.9,16.5,29.96,WNW,290,0.0,6.0,76,0.00,,,0.00,Wunderground v.1.15,2013-03-17 05:40:00,
2013-03-17 01:45:00,22.9,16.5,29.97,West,281,1.0,6.0,76,0.00,,,0.00,Wunderground v.1.15,2013-03-17 05:45:00,
2013-03-17 01:50:00,23.0,16.6,29.97,WNW,297,2.0,6.0,76,0.00,,,0.00,Wunderground v.1.15,2013-03-17 05:50:00,
2013-03-17 01:55:00,23.1,16.4,29.97,West,263,3.0,6.0,75,0.00,,,0.00,Wunderground v.1.15,2013-03-17 05:55:00,
2013-03-17 02:00:00,23.1,16.4,29.97,WNW,288,2.0,6.0,75,0.00,,,0.00,Wunderground v.1.15,2013-03-17 06:00:00,
2013-03-17 02:05:00,23.0,16.3,29.98,West,277,1.0,6.0,75,0.00,,,0.00,Wunderground v.1.15,2013-03-17 06:05:00,
2013-03-17 02:14:00,22.8,16.4,29.98,WNW,298,2.0,3.0,76,0.00,,,0.00,Wunderground v.1.15,2013-03-17 06:14:00,
2013-03-17 02:20:00,22.7,16.3,29.98,West,271,2.0,2.0,76,0.00,,,0.00,Wunderground v.1.15,2013-03-17 06:20:00,
2013-03-17 02:25:00,22.5,16.1,29.98,WNW,287,2.0,6.0,76,0.00,,,0.00,Wunderground v.1.15,2013-03-17 06:25:00,
2013-03-17 02:30:00,22.4,16.0,29.98,West,271,2.0,6.0,76,0.00,,,0.00,Wunderground v.1.15,2013-03-17 06:30:00,
2013-03-17 02:35:00,22.4,16.0,29.98,WNW,292,3.0,6.0,76,0.00,,,0.00,Wunderground v.1.15,2013-03-17 06:35:00,
2013-03-17 02:40:00,22.4,16.0,29.99,West,279,2.0,6.0,76,0.00,,,0.00,Wunderground v.1.15,2013-03-17 06:40:00,
2013-03-17 02:50:00,22.3,15.9,30.00,NW,315,2.0,2.0,76,0.00,,,0.00,Wunderground v.1.15,2013-03-17 06:50:00,
2013-03-17 02:55:00,22.3,15.9,30.00,West,267,3.0,3.0,76,0.00,,,0.00,Wunderground v.1.15,2013-03-17 06:55:00,
2013-03-17 03:00:00,22.3,15.9,30.00,West,268,2.0,6.0,76,0.00,,,0.00,Wunderground v.1.15,2013-03-17 07:00:00,
2013-03-17 03:05:00,22.2,15.8,30.00,WNW,300,3.0,6.0,76,0.00,,,0.00,Wunderground v.1.15,2013-03-17 07:05:00,
2013-03-17 03:10:00,22.1,15.4,30.00,WNW,284,4.0,7.0,75,0.00,,,0.00,Wunderground v.1.15,2013-03-17 07:10:00,
2013-03-17 03:15:00,22.1,15.4,30.00,West,263,4.0,7.0,75,0.00,,,0.00,Wunderground v.1.15,2013-03-17 07:15:00,
2013-03-17 03:25:00,22.0,15.0,30.01,West,269,3.0,6.0,74,0.00,,,0.00,Wunderground v.1.15,2013-03-17 07:25:00,
2013-03-17 03:30:00,21.8,14.8,30.01,West,271,4.0,4.0,74,0.00,,,0.00,Wunderground v.1.15,2013-03-17 07:30:00,
2013-03-17 03:35:00,21.8,14.8,30.01,WNW,282,4.0,5.0,74,0.00,,,0.00,Wunderground v.1.15,2013-03-17 07:35:00,
2013-03-17 03:40:00,21.6,14.3,30.02,NW,312,4.0,9.0,73,0.00,,,0.00,Wunderground v.1.15,2013-03-17 07:40:00,
2013-03-17 03:45:00,21.5,13.5,30.02,WNW,299,4.0,9.0,71,0.00,,,0.00,Wunderground v.1.15,2013-03-17 07:45:00,
2013-03-17 03:50:00,21.5,13.2,30.02,WNW,289,4.0,4.0,70,0.00,,,0.00,Wunderground v.1.15,2013-03-17 07:50:00,
2013-03-17 03:55:00,21.3,13.0,30.02,WNW,299,3.0,6.0,70,0.00,,,0.00,Wunderground v.1.15,2013-03-17 07:55:00,
2013-03-17 04:00:00,21.2,12.9,30.02,WNW,284,2.0,2.0,70,0.00,,,0.00,Wunderground v.1.15,2013-03-17 08:00:00,
2013-03-17 04:10:00,20.8,12.6,30.03,WNW,294,1.0,1.0,70,0.00,,,0.00,Wunderground v.1.15,2013-03-17 08:10:00,
2013-03-17 04:15:00,20.6,12.4,30.02,WNW,294,1.0,6.0,70,0.00,,,0.00,Wunderground v.1.15,2013-03-17 08:15:00,
2013-03-17 04:20:00,20.4,12.5,30.02,WNW,294,0.0,6.0,71,0.00,,,0.00,Wunderground v.1.15,2013-03-17 08:20:00,
2013-03-17 04:25:00,20.2,12.6,30.02,WNW,294,0.0,6.0,72,0.00,,,0.00,Wunderground v.1.15,2013-03-17 08:25:00,
2013-03-17 04:30:00,20.0,12.1,30.02,WNW,294,0.0,6.0,71,0.00,,,0.00,Wunderground v.1.15,2013-03-17 08:30:00,
2013-03-17 04:35:00,19.7,12.1,30.02,WNW,294,0.0,6.0,72,0.00,,,0.00,Wunderground v.1.15,2013-03-17 08:35:00,
2013-03-17 04:45:00,19.2,11.6,30.02,WNW,294,0.0,6.0,72,0.00,,,0.00,Wunderground v.1.15,2013-03-17 08:45:00,
2013-03-17 04:50:00,19.0,11.8,30.02,WNW,294,0.0,6.0,73,0.00,,,0.00,Wunderground v.1.15,2013-03-17 08:50:00,
2013-03-17 04:55:00,18.9,11.7,30.03,WNW,294,0.0,6.0,73,0.00,,,0.00,Wunderground v.1.15,2013-03-17 08:55:00,
2013-03-17 05:00:00,18.8,11.6,30.03,WNW,294,0.0,6.0,73,0.00,,,0.00,Wunderground v.1.15,2013-03-17 09:00:00,
2013-03-17 05:05:00,18.8,11.9,30.03,WNW,294,0.0,6.0,74,0.00,,,0.00,Wunderground v.1.15,2013-03-17 09:05:00,
2013-03-17 05:10:00,18.7,11.5,30.03,WNW,294,0.0,6.0,73,0.00,,,0.00,Wunderground v.1.15,2013-03-17 09:10:00,
2013-03-17 05:20:00,18.5,11.3,30.03,WNW,294,0.0,6.0,73,0.00,,,0.00,Wunderground v.1.15,2013-03-17 09:20:00,
2013-03-17 05:25:00,18.4,11.5,30.03,WNW,294,0.0,6.0,74,0.00,,,0.00,Wunderground v.1.15,2013-03-17 09:25:00,
2013-03-17 05:30:00,18.3,11.4,30.04,WNW,294,0.0,6.0,74,0.00,,,0.00,Wunderground v.1.15,2013-03-17 09:30:00,
2013-03-17 05:35:00,18.2,11.3,30.03,WNW,294,0.0,6.0,74,0.00,,,0.00,Wunderground v.1.15,2013-03-17 09:35:00,
2013-03-17 05:40:00,18.0,11.1,30.03,WNW,294,0.0,6.0,74,0.00,,,0.00,Wunderground v.1.15,2013-03-17 09:40:00,
2013-03-17 05:45:00,17.9,11.3,30.03,WNW,294,0.0,6.0,75,0.00,,,0.00,Wunderground v.1.15,2013-03-17 09:45:00,
2013-03-17 05:50:00,17.7,10.8,30.03,WNW,294,0.0,6.0,74,0.00,,,0.00,Wunderground v.1.15,2013-03-17 09:50:00,
2013-03-17 06:00:00,17.4,10.8,30.04,WNW,294,0.0,6.0,75,0.00,,,0.00,Wunderground v.1.15,2013-03-17 10:00:00,
2013-03-17 06:05:00,17.3,11.0,30.04,WNW,294,0.0,6.0,76,0.00,,,0.00,Wunderground v.1.15,2013-03-17 10:05:00,
2013-03-17 06:10:00,17.2,10.9,30.04,WNW,294,0.0,6.0,76,0.00,,,0.00,Wunderground v.1.15,2013-03-17 10:10:00,
2013-03-17 06:20:00,17.0,11.0,30.05,WNW,294,0.0,0.0,77,0.00,,,0.00,Wunderground v.1.15,2013-03-17 10:20:00,
2013-03-17 06:25:00,16.8,11.1,30.05,WNW,294,0.0,0.0,78,0.00,,,0.00,Wunderground v.1.15,2013-03-17 10:25:00,
2013-03-17 06:30:00,16.6,11.2,30.06,WNW,294,0.0,0.0,79,0.00,,,0.00,Wunderground v.1.15,2013-03-17 10:30:00,
2013-03-17 06:35:00,16.5,11.4,30.07,WNW,294,0.0,0.0,80,0.00,,,0.00,Wunderground v.1.15,2013-03-17 10:35:00,
2013-03-17 06:40:00,16.4,11.3,30.07,WNW,294,0.0,0.0,80,0.00,,,0.00,Wunderground v.1.15,2013-03-17 10:40:00,
2013-03-17 06:45:00,16.7,11.6,30.07,WNW,294,0.0,0.0,80,0.00,,,0.00,Wunderground v.1.15,2013-03-17 10:45:00,
2013-03-17 06:54:00,18.0,12.3,30.08,WSW,257,1.0,5.0,78,0.00,,,0.00,Wunderground v.1.15,2013-03-17 10:54:00,
2013-03-17 07:00:00,18.6,12.3,30.08,WNW,298,1.0,1.0,76,0.00,,,0.00,Wunderground v.1.15,2013-03-17 11:00:00,
2013-03-17 07:05:00,19.0,12.7,30.08,WNW,298,1.0,1.0,76,0.00,,,0.00,Wunderground v.1.15,2013-03-17 11:05:00,
2013-03-17 07:10:00,19.3,13.0,30.08,WNW,300,0.0,0.0,76,0.00,,,0.00,Wunderground v.1.15,2013-03-17 11:10:00,
2013-03-17 07:15:00,19.4,13.1,30.08,WNW,300,0.0,0.0,76,0.00,,,0.00,Wunderground v.1.15,2013-03-17 11:15:00,
2013-03-17 07:20:00,19.5,13.2,30.08,WNW,300,0.0,0.0,76,0.00,,,0.00,Wunderground v.1.15,2013-03-17 11:20:00,
2013-03-17 07:30:00,19.7,13.4,30.08,WNW,300,0.0,0.0,76,0.00,,,0.00,Wunderground v.1.15,2013-03-17 11:30:00,
2013-03-17 07:40:00,19.8,14.0,30.09,WNW,300,0.0,0.0,78,0.00,,,0.00,Wunderground v.1.15,2013-03-17 11:40:00,
2013-03-17 07:45:00,19.8,13.8,30.08,WNW,300,0.0,0.0,77,0.00,,,0.00,Wunderground v.1.15,2013-03-17 11:45:00,
2013-03-17 07:50:00,19.9,13.9,30.08,WNW,300,0.0,0.0,77,0.00,,,0.00,Wunderground v.1.15,2013-03-17 11:50:00,
2013-03-17 07:55:00,20.1,14.3,30.08,WNW,300,0.0,0.0,78,0.00,,,0.00,Wunderground v.1.15,2013-03-17 11:55:00,
2013-03-17 08:00:00,20.2,14.4,30.09,WNW,300,0.0,0.0,78,0.00,,,0.00,Wunderground v.1.15,2013-03-17 12:00:00,
2013-03-17 08:05:00,20.4,14.6,30.10,WNW,300,0.0,0.0,78,0.00,,,0.00,Wunderground v.1.15,2013-03-17 12:05:00,
2013-03-17 08:15:00,20.8,14.7,30.10,WNW,300,0.0,0.0,77,0.00,,,0.00,Wunderground v.1.15,2013-03-17 12:15:00,
2013-03-17 08:20:00,20.9,14.8,30.10,WNW,300,0.0,0.0,77,0.00,,,0.00,Wunderground v.1.15,2013-03-17 12:20:00,
2013-03-17 08:25:00,21.3,15.2,30.10,NW,306,0.0,0.0,77,0.00,,,0.00,Wunderground v.1.15,2013-03-17 12:25:00,
2013-03-17 08:30:00,21.6,15.2,30.10,NW,306,0.0,0.0,76,0.00,,,0.00,Wunderground v.1.15,2013-03-17 12:30:00,
2013-03-17 08:35:00,21.9,15.8,30.11,NW,306,0.0,0.0,77,0.00,,,0.00,Wunderground v.1.15,2013-03-17 12:35:00,
2013-03-17 08:40:00,22.0,15.6,30.11,NW,306,0.0,0.0,76,0.00,,,0.00,Wunderground v.1.15,2013-03-17 12:40:00,
2013-03-17 08:50:00,22.5,16.1,30.12,WNW,286,1.0,5.0,76,0.00,,,0.00,Wunderground v.1.15,2013-03-17 12:50:00,
2013-03-17 08:55:00,22.6,16.2,30.12,WNW,296,3.0,5.0,76,0.00,,,0.00,Wunderground v.1.15,2013-03-17 12:55:00,
2013-03-17 09:00:00,22.8,16.1,30.12,NW,308,4.0,6.0,75,0.00,,,0.00,Wunderground v.1.15,2013-03-17 13:00:00,
2013-03-17 09:05:00,23.1,16.4,30.12,West,275,4.0,6.0,75,0.00,,,0.00,Wunderground v.1.15,2013-03-17 13:05:00,
2013-03-17 09:10:00,23.5,16.1,30.13,WNW,300,5.0,5.0,73,0.00,,,0.00,Wunderground v.1.15,2013-03-17 13:10:00,
2013-03-17 09:15:00,23.9,15.9,30.13,WNW,291,6.0,8.0,71,0.00,,,0.00,Wunderground v.1.15,2013-03-17 13:15:00,
2013-03-17 09:20:00,24.4,16.0,30.13,WNW,284,7.0,11.0,70,0.00,,,0.00,Wunderground v.1.15,2013-03-17 13:20:00,
2013-03-17 09:30:00,24.8,15.4,30.14,West,279,8.0,9.0,67,0.00,,,0.00,Wunderground v.1.15,2013-03-17 13:30:00,
2013-03-17 09:35:00,24.8,15.0,30.14,WNW,288,7.0,9.0,66,0.00,,,0.00,Wunderground v.1.15,2013-03-17 13:35:00,
2013-03-17 09:40:00,25.0,14.9,30.14,West,280,8.0,9.0,65,0.00,,,0.00,Wunderground v.1.15,2013-03-17 13:40:00,
2013-03-17 09:45:00,25.0,14.5,30.15,NNW,331,8.0,9.0,64,0.00,,,0.00,Wunderground v.1.15,2013-03-17 13:45:00,
2013-03-17 09:50:00,25.1,14.6,30.15,WNW,288,7.0,10.0,64,0.00,,,0.00,Wunderground v.1.15,2013-03-17 13:50:00,
2013-03-17 09:55:00,25.4,14.9,30.15,NW,310,7.0,10.0,64,0.00,,,0.00,Wunderground v.1.15,2013-03-17 13:55:00,
2013-03-17 10:05:00,26.0,13.6,30.15,NNW,341,9.0,9.0,59,0.00,,,0.00,Wunderground v.1.15,2013-03-17 14:05:00,
2013-03-17 10:10:00,26.2,13.8,30.15,WNW,296,9.0,11.0,59,0.00,,,0.00,Wunderground v.1.15,2013-03-17 14:10:00,
2013-03-17 10:15:00,26.5,13.7,30.15,WNW,291,9.0,13.0,58,0.00,,,0.00,Wunderground v.1.15,2013-03-17 14:15:00,
2013-03-17 10:20:00,26.8,14.0,30.15,West,271,8.0,8.0,58,0.00,,,0.00,Wunderground v.1.15,2013-03-17 14:20:00,
2013-03-17 10:25:00,27.1,14.7,30.15,WNW,295,7.0,8.0,59,0.00,,,0.00,Wunderground v.1.15,2013-03-17 14:25:00,
2013-03-17 10:30:00,27.6,16.3,30.15,WSW,254,6.0,6.0,62,0.00,,,0.00,Wunderground v.1.15,2013-03-17 14:30:00,
2013-03-17 10:40:00,28.0,14.3,30.15,WNW,289,7.0,7.0,56,0.00,,,0.00,Wunderground v.1.15,2013-03-17 14:40:00,
2013-03-17 10:45:00,28.1,13.6,30.15,WNW,290,8.0,8.0,54,0.00,,,0.00,Wunderground v.1.15,2013-03-17 14:45:00,
2013-03-17 10:50:00,28.7,14.1,30.15,WNW,283,7.0,7.0,54,0.00,,,0.00,Wunderground v.1.15,2013-03-17 14:50:00,
2013-03-17 10:55:00,29.1,13.6,30.15,WNW,282,6.0,7.0,52,0.00,,,0.00,Wunderground v.1.15,2013-03-17 14:55:00,
2013-03-17 11:00:00,28.8,12.0,30.15,West,278,8.0,8.0,49,0.00,,,0.00,Wunderground v.1.15,2013-03-17 15:00:00,
2013-03-17 11:05:00,29.2,12.4,30.15,NNW,327,8.0,10.0,49,0.00,,,0.00,Wunderground v.1.15,2013-03-17 15:05:00,
2013-03-17 11:10:00,29.7,12.4,30.15,WNW,284,8.0,8.0,48,0.00,,,0.00,Wunderground v.1.15,2013-03-17 15:10:00,
2013-03-17 11:20:00,30.3,12.0,30.15,WSW,246,8.0,8.0,46,0.00,,,0.00,Wunderground v.1.15,2013-03-17 15:20:00,
2013-03-17 11:25:00,30.7,11.3,30.15,WNW,292,8.0,8.0,44,0.00,,,0.00,Wunderground v.1.15,2013-03-17 15:25:00,
2013-03-17 11:30:00,30.4,11.6,30.16,WNW,294,7.0,7.0,45,0.00,,,0.00,Wunderground v.1.15,2013-03-17 15:30:00,
2013-03-17 11:35:00,30.6,11.2,30.16,NW,323,9.0,9.0,44,0.00,,,0.00,Wunderground v.1.15,2013-03-17 15:35:00,
2013-03-17 11:40:00,30.9,11.0,30.16,WNW,288,8.0,8.0,43,0.00,,,0.00,Wunderground v.1.15,2013-03-17 15:40:00,
2013-03-17 11:45:00,31.0,11.6,30.16,WSW,243,7.0,10.0,44,0.00,,,0.00,Wunderground v.1.15,2013-03-17 15:45:00,
2013-03-17 11:55:00,30.6,11.2,30.16,WNW,302,9.0,12.0,44,0.00,,,0.00,Wunderground v.1.15,2013-03-17 15:55:00,
2013-03-17 12:00:00,30.8,9.8,30.16,West,280,10.0,11.0,41,0.00,,,0.00,Wunderground v.1.15,2013-03-17 16:00:00,
2013-03-17 12:05:00,30.6,10.7,30.16,NW,316,10.0,11.0,43,0.00,,,0.00,Wunderground v.1.15,2013-03-17 16:05:00,
2013-03-17 12:10:00,31.1,11.7,30.16,WNW,286,9.0,9.0,44,0.00,,,0.00,Wunderground v.1.15,2013-03-17 16:10:00,
2013-03-17 12:15:00,30.7,10.3,30.16,West,279,9.0,12.0,42,0.00,,,0.00,Wunderground v.1.15,2013-03-17 16:15:00,
2013-03-17 12:20:00,31.2,11.3,30.17,NW,317,10.0,10.0,43,0.00,,,0.00,Wunderground v.1.15,2013-03-17 16:20:00,
2013-03-17 12:30:00,30.9,10.5,30.17,West,273,9.0,9.0,42,0.00,,,0.00,Wunderground v.1.15,2013-03-17 16:30:00,
2013-03-17 12:35:00,31.5,11.0,30.16,NW,325,8.0,9.0,42,0.00,,,0.00,Wunderground v.1.15,2013-03-17 16:35:00,
2013-03-17 12:40:00,31.9,12.4,30.16,West,280,8.0,8.0,44,0.00,,,0.00,Wunderground v.1.15,2013-03-17 16:40:00,
2013-03-17 12:45:00,32.3,11.7,30.16,NW,305,8.0,14.0,42,0.00,,,0.00,Wunderground v.1.15,2013-03-17 16:45:00,
2013-03-17 12:50:00,32.1,11.0,30.17,NNW,336,9.0,9.0,41,0.00,,,0.00,Wunderground v.1.15,2013-03-17 16:50:00,
2013-03-17 12:55:00,31.8,11.3,30.17,NW,306,10.0,11.0,42,0.00,,,0.00,Wunderground v.1.15,2013-03-17 16:55:00,
2013-03-17 13:05:00,31.5,9.9,30.17,NW,311,11.0,11.0,40,0.00,,,0.00,Wunderground v.1.15,2013-03-17 17:05:00,
2013-03-17 13:10:00,30.9,10.5,30.18,WNW,284,11.0,11.0,42,0.00,,,0.00,Wunderground v.1.15,2013-03-17 17:10:00,
2013-03-17 13:15:00,30.9,10.5,30.18,West,267,11.0,11.0,42,0.00,,,0.00,Wunderground v.1.15,2013-03-17 17:15:00,
2013-03-17 13:20:00,31.5,12.1,30.17,WNW,297,9.0,11.0,44,0.00,,,0.00,Wunderground v.1.15,2013-03-17 17:20:00,
2013-03-17 13:25:00,31.6,13.2,30.18,WNW,292,8.0,11.0,46,0.00,,,0.00,Wunderground v.1.15,2013-03-17 17:25:00,
2013-03-17 13:30:00,32.4,12.9,30.17,WNW,292,8.0,15.0,44,0.00,,,0.00,Wunderground v.1.15,2013-03-17 17:30:00,
2013-03-17 13:40:00,32.3,11.7,30.17,NW,319,9.0,10.0,42,0.00,,,0.00,Wunderground v.1.15,2013-03-17 17:40:00,
2013-03-17 13:45:00,32.6,13.1,30.18,NW,321,8.0,10.0,44,0.00,,,0.00,Wunderground v.1.15,2013-03-17 17:45:00,
2013-03-17 13:50:00,32.8,11.6,30.18,WSW,252,9.0,9.0,41,0.00,,,0.00,Wunderground v.1.15,2013-03-17 17:50:00,
2013-03-17 13:55:00,32.7,11.6,30.17,West,261,9.0,11.0,41,0.00,,,0.00,Wunderground v.1.15,2013-03-17 17:55:00,
2013-03-17 14:00:00,32.4,11.8,30.18,WNW,289,9.0,9.0,42,0.00,,,0.00,Wunderground v.1.15,2013-03-17 18:00:00,
2013-03-17 14:05:00,32.5,10.8,30.18,West,267,11.0,11.0,40,0.00,,,0.00,Wunderground v.1.15,2013-03-17 18:05:00,
2013-03-17 14:10:00,32.1,11.0,30.18,WNW,290,12.0,12.0,41,0.00,,,0.00,Wunderground v.1.15,2013-03-17 18:10:00,
2013-03-17 14:20:00,32.6,12.5,30.17,WNW,302,9.0,9.0,43,0.00,,,0.00,Wunderground v.1.15,2013-03-17 18:20:00,
2013-03-17 14:25:00,32.8,12.7,30.17,WNW,294,8.0,9.0,43,0.00,,,0.00,Wunderground v.1.15,2013-03-17 18:25:00,
2013-03-17 14:30:00,32.7,10.4,30.18,SSW,192,9.0,15.0,39,0.00,,,0.00,Wunderground v.1.15,2013-03-17 18:30:00,
2013-03-17 14:35:00,32.1,11.0,30.17,WNW,288,11.0,18.0,41,0.00,,,0.00,Wunderground v.1.15,2013-03-17 18:35:00,
2013-03-17 14:40:00,32.3,10.1,30.18,West,275,11.0,11.0,39,0.00,,,0.00,Wunderground v.1.15,2013-03-17 18:40:00,
2013-03-17 14:45:00,32.5,11.9,30.18,West,265,11.0,11.0,42,0.00,,,0.00,Wunderground v.1.15,2013-03-17 18:45:00,
2013-03-17 14:55:00,33.2,12.0,30.18,WNW,284,9.0,18.0,41,0.00,,,0.00,Wunderground v.1.15,2013-03-17 18:55:00,
2013-03-17 15:00:00,33.3,12.1,30.18,West,278,9.0,9.0,41,0.00,,,0.00,Wunderground v.1.15,2013-03-17 19:00:00,
2013-03-17 15:05:00,33.3,12.1,30.18,NE,51,9.0,9.0,41,0.00,,,0.00,Wunderground v.1.15,2013-03-17 19:05:00,
2013-03-17 15:10:00,33.4,13.3,30.18,NNW,332,8.0,11.0,43,0.00,,,0.00,Wunderground v.1.15,2013-03-17 19:10:00,
2013-03-17 15:15:00,33.3,11.5,30.18,WNW,292,7.0,11.0,40,0.00,,,0.00,Wunderground v.1.15,2013-03-17 19:15:00,
2013-03-17 15:20:00,33.1,11.9,30.18,West,265,9.0,9.0,41,0.00,,,0.00,Wunderground v.1.15,2013-03-17 19:20:00,
2013-03-17 15:30:00,33.7,12.5,30.18,West,265,8.0,15.0,41,0.00,,,0.00,Wunderground v.1.15,2013-03-17 19:30:00,
2013-03-17 15:35:00,33.7,11.9,30.18,WNW,297,8.0,15.0,40,0.00,,,0.00,Wunderground v.1.15,2013-03-17 19:35:00,
2013-03-17 15:40:00,34.0,12.2,30.18,WNW,285,8.0,8.0,40,0.00,,,0.00,Wunderground v.1.15,2013-03-17 19:40:00,
2013-03-17 15:45:00,34.4,13.1,30.18,WNW,295,7.0,8.0,41,0.00,,,0.00,Wunderground v.1.15,2013-03-17 19:45:00,
2013-03-17 15:50:00,34.3,13.0,30.18,West,267,7.0,7.0,41,0.00,,,0.00,Wunderground v.1.15,2013-03-17 19:50:00,
2013-03-17 16:00:00,34.7,12.2,30.18,WSW,252,6.0,8.0,39,0.00,,,0.00,Wunderground v.1.15,2013-03-17 20:00:00,
2013-03-17 16:05:00,34.1,11.1,30.18,West,277,7.0,11.0,38,0.00,,,0.00,Wunderground v.1.15,2013-03-17 20:05:00,
2013-03-17 16:10:00,33.6,11.8,30.18,WNW,303,8.0,8.0,40,0.00,,,0.00,Wunderground v.1.15,2013-03-17 20:10:00,
2013-03-17 16:15:00,33.9,12.1,30.18,WNW,285,7.0,8.0,40,0.00,,,0.00,Wunderground v.1.15,2013-03-17 20:15:00,
2013-03-17 16:20:00,33.5,11.7,30.18,NW,306,8.0,8.0,40,0.00,,,0.00,Wunderground v.1.15,2013-03-17 20:20:00,
2013-03-17 16:25:00,33.5,12.3,30.18,NNW,327,7.0,10.0,41,0.00,,,0.00,Wunderground v.1.15,2013-03-17 20:25:00,
2013-03-17 16:35:00,33.5,11.7,30.18,West,281,8.0,8.0,40,0.00,,,0.00,Wunderground v.1.15,2013-03-17 20:35:00,
2013-03-17 16:40:00,33.2,10.3,30.19,WNW,288,8.0,8.0,38,0.00,,,0.00,Wunderground v.1.15,2013-03-17 20:40:00,
2013-03-17 16:45:00,32.8,10.5,30.19,WNW,292,9.0,9.0,39,0.00,,,0.00,Wunderground v.1.15,2013-03-17 20:45:00,
2013-03-17 16:50:00,32.7,10.4,30.19,WNW,292,9.0,9.0,39,0.00,,,0.00,Wunderground v.1.15,2013-03-17 20:50:00,
2013-03-17 16:55:00,32.9,11.7,30.19,WNW,287,7.0,9.0,41,0.00,,,0.00,Wunderground v.1.15,2013-03-17 20:55:00,
2013-03-17 17:00:00,33.1,10.8,30.19,WNW,300,7.0,11.0,39,0.00,,,0.00,Wunderground v.1.15,2013-03-17 21:00:00,
2013-03-17 17:10:00,33.1,11.4,30.19,NNW,331,8.0,8.0,40,0.00,,,0.00,Wunderground v.1.15,2013-03-17 21:10:00,
2013-03-17 17:15:00,32.8,10.5,30.20,West,271,8.0,8.0,39,0.00,,,0.00,Wunderground v.1.15,2013-03-17 21:15:00,
2013-03-17 17:25:00,31.9,10.8,30.20,WNW,302,10.0,11.0,41,0.00,,,0.00,Wunderground v.1.15,2013-03-17 21:25:00,
2013-03-17 17:35:00,31.6,10.6,30.20,NE,48,8.0,9.0,41,0.00,,,0.00,Wunderground v.1.15,2013-03-17 21:35:00,
2013-03-17 17:40:00,31.6,11.1,30.20,West,277,7.0,7.0,42,0.00,,,0.00,Wunderground v.1.15,2013-03-17 21:40:00,
2013-03-17 17:45:00,31.4,10.9,30.20,NNW,331,6.0,8.0,42,0.00,,,0.00,Wunderground v.1.15,2013-03-17 21:45:00,
2013-03-17 17:50:00,31.1,10.6,30.21,West,276,7.0,10.0,42,0.00,,,0.00,Wunderground v.1.15,2013-03-17 21:50:00,
2013-03-17 17:55:00,30.8,10.9,30.22,WNW,300,8.0,10.0,43,0.00,,,0.00,Wunderground v.1.15,2013-03-17 21:55:00,
2013-03-17 18:00:00,30.7,10.8,30.22,WNW,292,7.0,7.0,43,0.00,,,0.00,Wunderground v.1.15,2013-03-17 22:00:00,
2013-03-17 18:10:00,30.5,10.6,30.22,West,274,7.0,7.0,43,0.00,,,0.00,Wunderground v.1.15,2013-03-17 22:10:00,
2013-03-17 18:15:00,30.3,10.4,30.22,WNW,282,8.0,8.0,43,0.00,,,0.00,Wunderground v.1.15,2013-03-17 22:15:00,
2013-03-17 18:20:00,30.2,10.4,30.23,WNW,295,7.0,7.0,43,0.00,,,0.00,Wunderground v.1.15,2013-03-17 22:20:00,
2013-03-17 18:25:00,30.0,10.2,30.23,WNW,287,7.0,7.0,43,0.00,,,0.00,Wunderground v.1.15,2013-03-17 22:25:00,
2013-03-17 18:30:00,29.8,10.0,30.23,WNW,294,8.0,8.0,43,0.00,,,0.00,Wunderground v.1.15,2013-03-17 22:30:00,
2013-03-17 18:35:00,29.7,10.4,30.23,WNW,292,7.0,8.0,44,0.00,,,0.00,Wunderground v.1.15,2013-03-17 22:35:00,
2013-03-17 18:40:00,29.5,10.2,30.24,NW,309,7.0,8.0,44,0.00,,,0.00,Wunderground v.1.15,2013-03-17 22:40:00,
2013-03-17 18:50:00,29.3,10.6,30.24,WNW,290,8.0,8.0,45,0.00,,,0.00,Wunderground v.1.15,2013-03-17 22:50:00,
2013-03-17 18:55:00,29.1,10.4,30.24,NNW,331,8.0,8.0,45,0.00,,,0.00,Wunderground v.1.15,2013-03-17 22:55:00,
2013-03-17 19:00:00,28.8,10.6,30.24,WSW,244,6.0,7.0,46,0.00,,,0.00,Wunderground v.1.15,2013-03-17 23:00:00,
2013-03-17 19:05:00,28.5,10.3,30.25,West,279,6.0,7.0,46,0.00,,,0.00,Wunderground v.1.15,2013-03-17 23:05:00,
2013-03-17 19:10:00,28.4,10.2,30.25,NW,306,6.0,9.0,46,0.00,,,0.00,Wunderground v.1.15,2013-03-17 23:10:00,
2013-03-17 19:15:00,28.3,9.6,30.25,WNW,301,7.0,9.0,45,0.00,,,0.00,Wunderground v.1.15,2013-03-17 23:15:00,
2013-03-17 19:25:00,28.0,10.3,30.26,West,277,5.0,6.0,47,0.00,,,0.00,Wunderground v.1.15,2013-03-17 23:25:00,
2013-03-17 19:30:00,27.9,10.2,30.27,WSW,254,5.0,5.0,47,0.00,,,0.00,Wunderground v.1.15,2013-03-17 23:30:00,
2013-03-17 19:35:00,27.8,10.6,30.27,WNW,288,5.0,5.0,48,0.00,,,0.00,Wunderground v.1.15,2013-03-17 23:35:00,
2013-03-17 19:40:00,27.6,10.4,30.27,WNW,298,5.0,5.0,48,0.00,,,0.00,Wunderground v.1.15,2013-03-17 23:40:00,
2013-03-17 19:45:00,27.4,10.3,30.27,WNW,294,4.0,5.0,48,0.00,,,0.00,Wunderground v.1.15,2013-03-17 23:45:00,
2013-03-17 19:50:00,27.4,10.3,30.27,West,275,5.0,5.0,48,0.00,,,0.00,Wunderground v.1.15,2013-03-17 23:50:00,
2013-03-17 20:00:00,27.2,10.1,30.28,WNW,294,5.0,5.0,48,0.00,,,0.00,Wunderground v.1.15,2013-03-18 00:00:00,
2013-03-17 20:05:00,27.0,10.4,30.28,WNW,296,4.0,5.0,49,0.00,,,0.00,Wunderground v.1.15,2013-03-18 00:05:00,
2013-03-17 20:10:00,26.8,10.2,30.28,WSW,249,2.0,6.0,49,0.00,,,0.00,Wunderground v.1.15,2013-03-18 00:10:00,
2013-03-17 20:15:00,26.7,9.6,30.29,West,260,3.0,7.0,48,0.00,,,0.00,Wunderground v.1.15,2013-03-18 00:15:00,
2013-03-17 20:20:00,26.7,9.6,30.29,WNW,292,5.0,6.0,48,0.00,,,0.00,Wunderground v.1.15,2013-03-18 00:20:00,
2013-03-17 20:25:00,26.6,9.5,30.29,WNW,294,5.0,6.0,48,0.00,,,0.00,Wunderground v.1.15,2013-03-18 00:25:00,
2013-03-17 20:30:00,26.5,9.4,30.30,WNW,298,5.0,5.0,48,0.00,,,0.00,Wunderground v.1.15,2013-03-18 00:30:00,
2013-03-17 20:40:00,26.4,9.3,30.30,West,280,6.0,6.0,48,0.00,,,0.00,Wunderground v.1.15,2013-03-18 00:40:00,
2013-03-17 20:45:00,26.2,9.2,30.30,WNW,288,6.0,6.0,48,0.00,,,0.00,Wunderground v.1.15,2013-03-18 00:45:00,
2013-03-17 20:50:00,26.1,9.5,30.31,WNW,285,5.0,5.0,49,0.00,,,0.00,Wunderground v.1.15,2013-03-18 00:50:00,
2013-03-17 20:55:00,26.0,9.4,30.31,WNW,288,4.0,5.0,49,0.00,,,0.00,Wunderground v.1.15,2013-03-18 00:55:00,
2013-03-17 21:00:00,25.8,9.2,30.31,WNW,302,3.0,3.0,49,0.00,,,0.00,Wunderground v.1.15,2013-03-18 01:00:00,
2013-03-17 21:05:00,25.7,9.6,30.32,WNW,283,3.0,3.0,50,0.00,,,0.00,Wunderground v.1.15,2013-03-18 01:05:00,
2013-03-17 21:10:00,25.6,9.5,30.32,WNW,284,3.0,4.0,50,0.00,,,0.00,Wunderground v.1.15,2013-03-18 01:10:00,
2013-03-17 21:20:00,25.3,9.7,30.32,WNW,286,3.0,5.0,51,0.00,,,0.00,Wunderground v.1.15,2013-03-18 01:20:00,
2013-03-17 21:25:00,25.2,9.6,30.33,WNW,294,3.0,5.0,51,0.00,,,0.00,Wunderground v.1.15,2013-03-18 01:25:00,
2013-03-17 21:30:00,25.1,9.9,30.33,WNW,298,3.0,6.0,52,0.00,,,0.00,Wunderground v.1.15,2013-03-18 01:30:00,
2013-03-17 21:35:00,25.1,10.3,30.33,NW,306,3.0,6.0,53,0.00,,,0.00,Wunderground v.1.15,2013-03-18 01:35:00,
2013-03-17 21:40:00,24.9,10.2,30.33,West,281,3.0,4.0,53,0.00,,,0.00,Wunderground v.1.15,2013-03-18 01:40:00,
2013-03-17 21:50:00,24.7,10.8,30.33,WNW,284,4.0,4.0,55,0.00,,,0.00,Wunderground v.1.15,2013-03-18 01:50:00,
2013-03-17 21:55:00,24.6,10.3,30.33,WNW,291,4.0,6.0,54,0.00,,,0.00,Wunderground v.1.15,2013-03-18 01:55:00,
2013-03-17 22:00:00,24.5,10.2,30.34,WNW,292,4.0,4.0,54,0.00,,,0.00,Wunderground v.1.15,2013-03-18 02:00:00,
2013-03-17 22:05:00,24.5,10.2,30.34,WNW,295,4.0,4.0,54,0.00,,,0.00,Wunderground v.1.15,2013-03-18 02:05:00,
2013-03-17 22:10:00,24.4,10.1,30.34,WNW,286,3.0,3.0,54,0.00,,,0.00,Wunderground v.1.15,2013-03-18 02:10:00,
2013-03-17 22:15:00,24.3,10.0,30.34,West,279,3.0,5.0,54,0.00,,,0.00,Wunderground v.1.15,2013-03-18 02:15:00,
2013-03-17 22:20:00,24.2,9.9,30.34,West,265,4.0,4.0,54,0.00,,,0.00,Wunderground v.1.15,2013-03-18 02:20:00,
2013-03-17 22:30:00,24.0,9.7,30.35,WNW,287,3.0,3.0,54,0.00,,,0.00,Wunderground v.1.15,2013-03-18 02:30:00,
2013-03-17 22:35:00,23.9,9.6,30.35,NW,306,3.0,3.0,54,0.00,,,0.00,Wunderground v.1.15,2013-03-18 02:35:00,
2013-03-17 22:40:00,23.8,9.6,30.35,WNW,286,2.0,6.0,54,0.00,,,0.00,Wunderground v.1.15,2013-03-18 02:40:00,
2013-03-17 22:45:00,23.6,9.4,30.35,West,279,2.0,6.0,54,0.00,,,0.00,Wunderground v.1.15,2013-03-18 02:45:00,
2013-03-17 22:50:00,23.5,9.3,30.35,NW,304,2.0,2.0,54,0.00,,,0.00,Wunderground v.1.15,2013-03-18 02:50:00,
2013-03-17 22:55:00,23.5,9.3,30.35,NW,320,1.0,2.0,54,0.00,,,0.00,Wunderground v.1.15,2013-03-18 02:55:00,
2013-03-17 23:05:00,23.2,9.4,30.36,WNW,289,1.0,1.0,55,0.00,,,0.00,Wunderground v.1.15,2013-03-18 03:05:00,
2013-03-17 23:10:00,23.0,9.6,30.36,WNW,289,1.0,2.0,56,0.00,,,0.00,Wunderground v.1.15,2013-03-18 03:10:00,
2013-03-17 23:15:00,22.9,9.9,30.36,WNW,289,1.0,2.0,57,0.00,,,0.00,Wunderground v.1.15,2013-03-18 03:15:00,
2013-03-17 23:20:00,22.7,9.7,30.36,West,279,1.0,1.0,57,0.00,,,0.00,Wunderground v.1.15,2013-03-18 03:20:00,
2013-03-17 23:25:00,22.6,9.6,30.36,WNW,299,1.0,1.0,57,0.00,,,0.00,Wunderground v.1.15,2013-03-18 03:25:00,
2013-03-17 23:30:00,22.5,9.5,30.36,NW,304,2.0,2.0,57,0.00,,,0.00,Wunderground v.1.15,2013-03-18 03:30:00,
2013-03-17 23:40:00,22.3,9.7,30.37,WNW,298,1.0,2.0,58,0.00,,,0.00,Wunderground v.1.15,2013-03-18 03:40:00,
2013-03-17 23:45:00,22.2,9.7,30.36,WNW,298,1.0,2.0,58,0.00,,,0.00,Wunderground v.1.15,2013-03-18 03:45:00,
2013-03-17 23:50:00,22.0,9.5,30.36,WNW,292,1.0,1.0,58,0.00,,,0.00,Wunderground v.1.15,2013-03-18 03:50:00,
2013-03-17 23:55:00,22.0,9.5,30.37,WNW,292,1.0,1.0,58,0.00,,,0.00,Wunderground v.1.15,2013-03-18 03:55:00,